BLOCK DM-SL DEB, 46091

Orbit data source: Space-Track

BLOCK DM-SL DEB, 46091 is space debris in GEO originally from a launch on Tue, 24 Dec 2019 UTC launched from the Tyuratam Missile And Space Complex (TTMTR). Debris objects in space refer to the collection of defunct objects orbiting the Earth. Examples of debris include non-operational satellites, rocket bodies, and fragments generated from explosions, collisions, or faulty payload assembly.

Loading next visibility...
Identifier
46091, 2019-095E
Orbit
GEO
Last TLE update
1 day ago
Origin
Manufacturer
Lavochkin
Mission
Spacecraft
Bus & Motor
Unknown
Mass
Unknown
Launch date (UTC)
2019-12-24 (5 years ago)
Launch vehicle
Unknown
Launch site
Tyuratam Missile And Space Complex (TTMTR)
Object type
Payload
Rocket body
Debris
Shape & HBR
Unknown
Radar Cross Section
Medium (>0.1 m² and <1 m²)

Expand to show TLE details & history

TLE from 1 day ago
0 BLOCK DM-SL DEB
1 46091U 19095E   25128.74787297 -.00000091  00000-0  00000-0 0  9994
2 46091   4.3229  78.6809 0098988 267.3200  91.4695  1.03262245 19562
Epoch: 2025-05-08T17:56Z
Definitive object data (Epoch: 2025-05-08T17:56:56.224Z)
Latitude
-0.00001°
Longitude
-57.44736°
Altitude
34,980.761 km
Speed
3.104 km/s
True Right ascension
05h 14m 24s
True Declination
0° 00' 00"
Sunlit
Object was in daylight at TLE epoch
Visualization TLE readout
Latitude
3.6445°
Longitude
0.22499°
Altitude
35,320.61 km
Speed
3.079 km/s
Apparent Right ascension
09h 29m 38s
Apparent Declination
-2° 04' 20"
Sunlit
Object is in daylight
Visualization observer readout
Local Sidereal Time
05:08:30
Azimuth
108.05° ESE
Elevation
17.293°
Doppler factor
1
Orbital elements
Apogee altitude
35,378.933 km
Perigee altitude
34,560.346 km
Semi-major axis
41,347.777 km
Eccentricity
0.0098988
Inclination
4.3229°
RAAN
78.6809°
Arg. of periapsis
267.32°
True anomaly
92.60301°
Mean anomaly
91.4695°
Eccentric anomaly
92.0363°
Mean motion
0.25815 °/min
BSTAR
Unknown
Orbital period
1394.56 mins
Loading historical data...
46091 neighbors
Loading maneuver chart data...
Loading SW <> Apogee altitude chart data...
Loading historical data...
Loading historical data...
Loading historical data...
Loading historical data...
Loading historical data...
Loading historical data...
Loading historical data...
Other satellites on launch #95 in the year 2019 (2019-12-24 UTC)

BLOCK DM-SL DEB Visibility forecast

Observer location: undefined°, undefined°

Span
Click to sort rows by Start time (UTC) header in descending order
Start Az.
Max El. time (UTC)
Max El. Az.
Max El.
End time (UTC)
End Az.
628 mins2025-05-09 20:57:17.149Z108.065° ESE2025-05-09 22:25:17.149Z107.361° ESE16.741°2025-05-10 07:25:17.149Z110.578° ESE
|